ASIASTAR

Last updated on Tue Sep 16 2025 00:02:45 GMT+0000 (Coordinated Universal Time)

1 26107U 00016A 25258.39129524 -.00000348 00000+0 00000+0 0 9994 2 26107 8.4835 61.0153 0006702 141.4715 37.9836 1.00269479 93163
UTC large
Height (km)
Speed (km/s)
/
Latitude / Longitude
Inclination (degrees)
Orbital Period (minutes)
Azimuth
Elevation
Range (km)
Doppler Factor

Next 0 passes for location: London (51.5072 / 0.1276)

Sorry there are no passes over London.